Weather in Staroe Drozhzhanoe

Russia / Republic of Tatarstan     54°43′27″N   47°33′47″E
temp.,
°C
wind,
m/s
gust,
m/s
humid.,
%
clouds,
%
prec.,
mm/h
press.,
hPa
HPBL,
m
27 january, wed
wed2700:00−5s4119499 0.0 1022260
03:00−1s5119598 0.0 1022565
06:00−1s61294100 0.0 1021630
09:00−1s71392100 0.0 1020536
12:000s81492100 0.0 1020638
15:00−1s71391100 0.0 1019556
18:00−3s71391100 0.0 1019526
21:00−3s61492100 0.0 1018529
28 january, thu
thu2800:00−3s61490100 0.0 1018545
03:00−3s61587100 0.0 1017455
06:00−3s61489100 0.0 1017374
09:00−3s51190100 0.1 1017358
12:00−4s51089100 0.0 1017425
15:00−5sse5992100 0.0 1016325
18:00−8sse5994100 0.0 1016251
21:00−10sse51194100 0.0 1016270
29 january, fri
fri2900:00−11sse4896100 0.0 1016153
03:00−11sse5996100 0.0 1014249
06:00−10se4996100 0.0 1012210
09:00−7se5995100 0.1 1011417
12:00−5sse5893100 0.1 1009518
15:00−5se5895100 0.6 1008373
18:00−6sse4996100 0.1 1007251
21:00−7sse499795 0.1 1006177
30 january, sat
sat3000:00−5s3896100 0.1 1005257
03:00−6sse41095100 0.1 1004237
06:00−6s5129557 0.0 1002262
09:00−4s7149266 0.0 1001607
12:00−1sse71296100 0.6 999772
15:00−1sw9168084 1.8 999761
18:00−6sw715860 0.0 1003467
21:00−8ssw411911 0.0 1006219
31 january, sun
sun3100:00−8s499346 0.0 1007184
03:00−5sse599673 0.1 1006246
06:00+1s81598100 2.1 1004875
09:00+1s101980100 2.3 1002901
12:00+1s101979100 0.0 1002987
15:000s111997100 0.3 1001957
18:00+1s111895100 0.6 1000888
21:00+1ssw101797100 1.4 1002831